Date String (YYYY-MM-DD hh:mm:ss) UTC,Instrument flags,Ambient pressure (hPa),Sample flow (lpm),Bypass flow (lpm),Sample temperature (°C),Ambient temperature (°C),ASC tube jacket temperature (°C),LED temperature (°C),Box temperature (°C),Sample RH (%),Span deviation,Mass concentration (μg/m³),Mass concentration (μg/m³),Mass concentration (μg/m³)
DateTimeUTC,F1_M11,P_M11,Q1_M11,Q2_M11,T1_M11,T2_M11,T3_M11,T4_M11,T5_M11,U1_M11,ZSPAN_M11,X0_M11,X2_M11,X1_M11
2023-05-25 20:00:00,,0828.8,5.00,0.00,29.5,28.1,00.0,37.7,31.2,29.4,0002.8,0024.08,0012.44,0011.54
2023-05-25 20:01:00,,0828.8,4.99,0.00,29.5,27.7,00.0,37.7,31.1,28.9,0002.8,0024.32,0012.44,0011.55
2023-05-25 20:02:00,,0828.7,5.01,0.00,29.4,26.1,00.0,37.6,30.9,29.2,0002.8,0024.34,0012.42,0011.57
2023-05-25 20:03:00,,0828.8,5.00,0.00,29.4,25.6,00.0,37.5,30.8,29.6,0002.9,0024.71,0012.38,0011.53
2023-05-25 20:04:00,,0828.8,5.00,0.00,29.3,25.7,00.0,37.5,30.7,30.6,0002.9,0023.91,0012.39,0011.51
2023-05-25 20:05:00,,0828.8,5.01,0.00,29.2,26.0,00.0,37.5,30.7,30.0,0002.9,0023.77,0012.40,0011.53
2023-05-25 20:06:00,,0828.7,5.00,0.00,29.2,26.3,00.0,37.5,30.7,29.6,0002.9,0022.81,0012.39,0011.51
2023-05-25 20:07:00,,0828.8,4.99,0.00,29.2,26.6,00.0,37.5,30.7,30.2,0002.8,0023.10,0012.39,0011.48
2023-05-25 20:08:00,,0828.7,5.00,0.00,29.2,26.8,00.0,37.5,30.7,30.6,0002.8,0022.67,0012.31,0011.40
2023-05-25 20:09:00,,0828.8,4.99,0.00,29.2,27.0,00.0,37.5,30.8,30.4,0002.7,0022.58,0012.24,0011.34
2023-05-25 20:10:00,,0828.8,5.00,0.00,29.2,27.2,00.0,37.6,30.8,31.0,0002.8,0022.28,0012.18,0011.30
2023-05-25 20:11:00,,0828.8,5.01,0.00,29.2,27.4,00.0,37.6,30.8,29.7,0002.9,0022.60,0012.19,0011.26
2023-05-25 20:12:00,,0828.8,5.00,0.00,29.2,27.5,00.0,37.6,30.9,30.2,0002.9,0022.30,0012.11,0011.20
2023-05-25 20:13:00,,0828.8,4.99,0.00,29.2,27.7,00.0,37.6,31.0,29.5,0002.9,0022.13,0012.10,0011.16
2023-05-25 20:14:00,,0828.8,5.00,0.00,29.3,27.8,00.0,37.6,31.0,29.4,0002.9,0021.46,0012.15,0011.17
2023-05-25 20:15:00,,0828.8,5.00,0.00,29.3,27.8,00.0,37.6,31.0,29.5,0002.9,0021.46,0012.18,0011.15
2023-05-25 20:16:00,,0828.8,4.99,0.00,29.3,26.6,00.0,37.5,30.9,29.8,0002.8,0021.61,0012.12,0011.09
2023-05-25 20:17:00,,0828.8,5.00,0.00,29.3,25.8,00.0,37.5,30.8,30.1,0002.8,0021.74,0012.02,0011.02
2023-05-25 20:18:00,,0828.8,5.01,0.00,29.2,25.8,00.0,37.5,30.7,30.2,0002.7,0021.47,0011.88,0010.90
2023-05-25 20:19:00,,0828.8,5.00,0.00,29.2,26.0,00.0,37.5,30.6,29.6,0002.7,0021.48,0011.82,0010.82
2023-05-25 20:20:00,,0828.8,5.00,0.00,29.1,26.3,00.0,37.5,30.6,28.7,0002.6,0021.29,0011.78,0010.78
2023-05-25 20:21:00,,0828.8,4.99,0.00,29.1,26.4,00.0,37.5,30.6,28.7,0002.6,0021.01,0011.71,0010.71
2023-05-25 20:22:00,,0828.8,5.00,0.00,29.0,26.5,00.0,37.5,30.5,29.1,0002.3,0021.17,0011.70,0010.68
2023-05-25 20:23:00,,0828.8,5.00,0.00,29.0,26.6,00.0,37.4,30.5,29.7,0002.4,0021.52,0011.66,0010.62
2023-05-25 20:24:00,,0828.8,5.00,0.00,29.0,26.7,00.0,37.4,30.5,28.9,0002.4,0021.24,0011.56,0010.52
2023-05-25 20:25:00,,0828.7,5.00,0.00,29.0,26.8,00.0,37.4,30.5,29.6,0002.4,0021.13,0011.39,0010.39
2023-05-25 20:26:00,,0828.8,5.00,0.00,28.9,26.9,00.0,37.4,30.5,29.2,0002.3,0020.90,0011.20,0010.26
2023-05-25 20:27:00,,0828.8,5.00,0.00,28.9,27.0,00.0,37.4,30.5,29.1,0002.3,0020.70,0011.06,0010.16
2023-05-25 20:28:00,,0828.8,5.00,0.00,29.0,27.1,00.0,37.4,30.6,30.1,0002.2,0020.26,0011.07,0010.12
2023-05-25 20:29:00,,0828.8,5.00,0.00,29.0,27.2,00.0,37.4,30.6,31.3,0002.2,0019.97,0011.13,0010.18
2023-05-25 20:30:00,,0828.7,5.01,0.00,29.0,27.2,00.0,37.4,30.6,31.1,0002.0,0019.50,0011.28,0010.36
2023-05-25 20:31:00,,0828.8,5.00,0.00,29.0,27.2,00.0,37.4,30.6,31.0,0002.2,0019.99,0011.46,0010.53
2023-05-25 20:32:00,,0828.8,5.01,0.00,29.0,27.3,00.0,37.4,30.6,31.4,0002.2,0020.32,0011.63,0010.70
2023-05-25 20:33:00,,0828.8,5.00,0.00,29.0,27.3,00.0,37.4,30.6,31.4,0002.3,0020.69,0011.78,0010.84
2023-05-25 20:34:00,,0828.8,4.99,0.00,29.0,27.3,00.0,37.4,30.6,31.6,0002.1,0020.37,0011.89,0010.97
2023-05-25 20:35:00,,0828.7,4.99,0.00,29.0,27.3,00.0,37.4,30.6,32.1,0002.0,0020.90,0012.07,0011.19
2023-05-25 20:36:00,,0828.8,5.00,0.00,29.0,27.3,00.0,37.4,30.6,31.9,0002.1,0021.25,0012.32,0011.41
2023-05-25 20:37:00,,0828.8,5.01,0.00,29.0,27.2,00.0,37.4,30.6,31.9,0002.1,0021.64,0012.55,0011.62
2023-05-25 20:38:00,,0828.7,5.00,0.00,29.0,27.2,00.0,37.4,30.6,31.4,0002.0,0021.73,0012.82,0011.87
2023-05-25 20:39:00,,0828.7,5.01,0.00,29.0,27.2,00.0,37.4,30.5,30.9,0002.0,0021.76,0013.03,0012.10
2023-05-25 20:40:00,,0828.7,5.00,0.00,29.0,27.2,00.0,37.4,30.5,31.5,0002.1,0021.94,0013.18,0012.25
2023-05-25 20:41:00,,0828.7,5.00,0.00,29.0,27.2,00.0,37.4,30.5,31.7,0002.4,0022.28,0013.28,0012.30
2023-05-25 20:42:00,,0828.7,5.00,0.00,29.0,27.2,00.0,37.4,30.6,31.4,0002.3,0021.95,0013.24,0012.30
2023-05-25 20:43:00,,0828.7,4.99,0.00,29.0,27.1,00.0,37.4,30.5,30.8,0002.2,0021.76,0013.14,0012.20
2023-05-25 20:44:00,,0828.7,5.00,0.00,29.0,27.1,00.0,37.4,30.4,29.9,0002.2,0021.21,0013.01,0012.10
2023-05-25 20:45:00,,0828.7,5.00,0.00,28.9,27.1,00.0,37.4,30.4,30.2,0002.3,0020.86,0012.96,0012.03
2023-05-25 20:46:00,,0828.7,5.01,0.00,28.9,27.0,00.0,37.4,30.5,30.3,0002.4,0020.70,0012.86,0011.92
2023-05-25 20:47:00,,0828.7,5.00,0.00,28.9,27.0,00.0,37.3,30.4,30.1,0002.4,0021.40,0012.77,0011.83
2023-05-25 20:48:00,,0828.7,5.00,0.00,28.9,26.9,00.0,37.3,30.4,30.0,0002.4,0021.16,0012.67,0011.77
2023-05-25 20:49:00,,0828.6,5.01,0.00,28.9,26.9,00.0,37.3,30.4,29.7,0002.6,0021.89,0012.47,0011.59
2023-05-25 20:50:00,,0828.7,5.01,0.00,28.9,27.1,00.0,37.3,30.5,29.9,0002.7,0021.68,0012.18,0011.35
2023-05-25 20:51:00,,0828.7,5.00,0.00,28.9,27.2,00.0,37.3,30.6,29.5,0002.8,0021.54,0011.95,0011.14
2023-05-25 20:52:00,,0828.7,5.00,0.00,28.9,27.3,00.0,37.3,30.6,29.5,0002.7,0021.07,0011.70,0010.95
2023-05-25 20:53:00,,0828.7,4.99,0.00,29.0,27.4,00.0,37.3,30.7,29.2,0002.8,0020.90,0011.49,0010.71
2023-05-25 20:54:00,,0828.7,5.00,0.00,29.0,27.5,00.0,37.4,30.7,28.8,0003.0,0020.82,0011.32,0010.55
2023-05-25 20:55:00,,0828.7,5.01,0.00,29.0,27.6,00.0,37.4,30.7,28.4,0003.1,0020.77,0011.17,0010.42
2023-05-25 20:56:00,,0828.7,5.00,0.00,29.1,27.7,00.0,37.4,30.8,28.2,0003.1,0021.08,0010.94,0010.23
2023-05-25 20:57:00,,0828.7,5.00,0.00,29.1,27.8,00.0,37.4,30.8,28.4,0002.9,0020.87,0010.74,0010.06
2023-05-25 20:58:00,,0828.7,4.99,0.00,29.2,27.9,00.0,37.4,30.9,28.2,0002.8,0019.54,0010.52,0009.87
2023-05-25 20:59:00,,0828.7,4.99,0.00,29.2,27.9,00.0,37.5,30.9,28.2,0002.7,0019.29,0010.29,0009.65
